When you browse on this site, cookies collect data to enhance your experience and personalize the content and advertising you see.
Visit our Privacy Policy to learn more. By continuing to use the site, you agree to this use of cookies and data.
  • Em Portugal
  • Lista de países
  • Para 7 dias
  • Temperatura da água
  • Mapa do tempo
  • Widgets de tempo
  • user-avatar
    Iniciar Sessão

    Previsão horária em Nuuk

    Hoje, 27 Maio, Quarta-feira

    Tempo Temperatura Precipitação Vento Pressão Humidade
    00:00 +1°C° 0.5 mm 3 m/s 749 mmHg 98%
    01:00 +2°C° 0.3 mm 2 m/s 749 mmHg 98%
    02:00 +2°C° 0.3 mm 2 m/s 749 mmHg 98%
    03:00 +1°C° 0 mm 2 m/s 750 mmHg 98%
    04:00 +1°C° 0.3 mm 2 m/s 750 mmHg 98%
    05:00 +3°C° 0.3 mm 1 m/s 751 mmHg 98%
    06:00 +3°C° 0.3 mm 1 m/s 752 mmHg 98%
    07:00 +2°C° 0.1 mm 2 m/s 752 mmHg 97%
    08:00 +2°C° 0.1 mm 2 m/s 752 mmHg 95%
    09:00 +1°C° 0.1 mm 3 m/s 752 mmHg 94%
    10:00 +1°C° 0 mm 3 m/s 752 mmHg 92%
    11:00 +1°C° 0 mm 4 m/s 752 mmHg 90%
    12:00 +1°C° 0 mm 4 m/s 753 mmHg 88%
    13:00 +1°C° 0 mm 4 m/s 753 mmHg 86%
    14:00 +1°C° 0 mm 5 m/s 753 mmHg 85%
    15:00 +1°C° 0 mm 5 m/s 753 mmHg 83%
    16:00 +1°C° 0 mm 5 m/s 753 mmHg 84%
    17:00 +1°C° 0 mm 6 m/s 753 mmHg 84%
    18:00 +1°C° 0 mm 6 m/s 754 mmHg 84%
    19:00 -1°C° 0 mm 6 m/s 754 mmHg 84%
    20:00 0°C° 0 mm 5 m/s 754 mmHg 85%
    21:00 -1°C° 0 mm 5 m/s 754 mmHg 85%
    22:00 -1°C° 0 mm 5 m/s 754 mmHg 86%
    23:00 -2°C° 0 mm 5 m/s 754 mmHg 87%

    Amanhã, 28 Maio, Quinta-feira

    Tempo Temperatura Precipitação Vento Pressão Humidade
    00:00 -2°C° 0 mm 4 m/s 754 mmHg 88%
    01:00 -2°C° 0 mm 4 m/s 754 mmHg 89%
    02:00 -3°C° 0 mm 4 m/s 754 mmHg 90%
    03:00 -3°C° 0 mm 4 m/s 754 mmHg 91%
    04:00 -2°C° 0 mm 4 m/s 754 mmHg 89%
    05:00 -2°C° 0 mm 4 m/s 754 mmHg 88%
    06:00 -1°C° 0 mm 3 m/s 754 mmHg 86%
    07:00 -1°C° 0 mm 3 m/s 754 mmHg 85%
    08:00 0°C° 0 mm 3 m/s 754 mmHg 84%
    09:00 0°C° 0 mm 3 m/s 754 mmHg 83%
    10:00 0°C° 0 mm 3 m/s 753 mmHg 83%
    11:00 0°C° 0 mm 3 m/s 753 mmHg 82%
    12:00 0°C° 0 mm 3 m/s 753 mmHg 82%
    13:00 0°C° 0 mm 3 m/s 753 mmHg 82%
    14:00 0°C° 0 mm 3 m/s 753 mmHg 82%
    15:00 0°C° 0 mm 3 m/s 754 mmHg 82%
    16:00 0°C° 0 mm 3 m/s 754 mmHg 82%
    17:00 0°C° 0 mm 3 m/s 754 mmHg 82%
    18:00 0°C° 0 mm 3 m/s 754 mmHg 82%
    19:00 0°C° 0 mm 3 m/s 754 mmHg 83%
    20:00 0°C° 0 mm 3 m/s 754 mmHg 83%
    21:00 +1°C° 0 mm 2 m/s 754 mmHg 84%
    22:00 -1°C° 0 mm 2 m/s 754 mmHg 84%
    23:00 -1°C° 0 mm 2 m/s 754 mmHg 85%

    Depois de amanhã, 29 Maio, Sexta-feira

    Tempo Temperatura Precipitação Vento Pressão Humidade
    00:00 -1°C° 0 mm 2 m/s 754 mmHg 85%
    01:00 -1°C° 0 mm 2 m/s 754 mmHg 86%
    02:00 -1°C° 0 mm 2 m/s 754 mmHg 86%
    03:00 -1°C° 0 mm 2 m/s 754 mmHg 86%
    04:00 +1°C° 0 mm 1 m/s 754 mmHg 84%
    05:00 +1°C° 0 mm 1 m/s 754 mmHg 81%
    06:00 +2°C° 0 mm 1 m/s 754 mmHg 78%
    07:00 +2°C° 0 mm 1 m/s 754 mmHg 76%
    08:00 +3°C° 0 mm 1 m/s 754 mmHg 74%
    09:00 +3°C° 0 mm 1 m/s 754 mmHg 72%
    10:00 +3°C° 0 mm 1 m/s 753 mmHg 72%
    11:00 +3°C° 0 mm 2 m/s 753 mmHg 72%
    12:00 +3°C° 0 mm 2 m/s 753 mmHg 72%
    13:00 +2°C° 0 mm 3 m/s 752 mmHg 71%
    14:00 +3°C° 0 mm 3 m/s 752 mmHg 70%
    15:00 +3°C° 0 mm 3 m/s 752 mmHg 68%
    16:00 +3°C° 0 mm 4 m/s 752 mmHg 69%
    17:00 +3°C° 0 mm 4 m/s 752 mmHg 69%
    18:00 +2°C° 0 mm 5 m/s 752 mmHg 69%
    19:00 +2°C° 0 mm 5 m/s 752 mmHg 73%
    20:00 +1°C° 0 mm 4 m/s 752 mmHg 76%
    21:00 +1°C° 0 mm 4 m/s 752 mmHg 79%
    22:00 0°C° 0 mm 4 m/s 752 mmHg 82%
    23:00 0°C° 0 mm 4 m/s 752 mmHg 84%

    30 Maio, Sábado

    Tempo Temperatura Precipitação Vento Pressão Humidade
    00:00 -1°C° 0 mm 4 m/s 751 mmHg 87%
    01:00 -1°C° 0 mm 4 m/s 752 mmHg 87%
    02:00 -1°C° 0 mm 4 m/s 752 mmHg 87%
    03:00 -1°C° 0 mm 4 m/s 752 mmHg 87%
    04:00 0°C° 0 mm 4 m/s 752 mmHg 84%
    05:00 +1°C° 0 mm 3 m/s 752 mmHg 80%
    06:00 +2°C° 0 mm 3 m/s 752 mmHg 77%
    07:00 +3°C° 0 mm 3 m/s 752 mmHg 73%
    08:00 +3°C° 0 mm 3 m/s 752 mmHg 70%
    09:00 +4°C° 0 mm 4 m/s 752 mmHg 66%
    10:00 +4°C° 0 mm 4 m/s 752 mmHg 65%
    11:00 +5°C° 0 mm 5 m/s 752 mmHg 64%
    12:00 +5°C° 0 mm 5 m/s 752 mmHg 64%
    13:00 +4°C° 0 mm 6 m/s 753 mmHg 64%
    14:00 +4°C° 0 mm 6 m/s 753 mmHg 64%
    15:00 +4°C° 0 mm 6 m/s 753 mmHg 65%
    16:00 +4°C° 0 mm 6 m/s 754 mmHg 66%
    17:00 +5°C° 0 mm 5 m/s 754 mmHg 67%
    18:00 +5°C° 0 mm 5 m/s 754 mmHg 68%
    19:00 +3°C° 0 mm 5 m/s 755 mmHg 71%
    20:00 +3°C° 0 mm 5 m/s 755 mmHg 74%
    21:00 +2°C° 0 mm 5 m/s 756 mmHg 76%
    22:00 +3°C° 0 mm 4 m/s 756 mmHg 78%
    23:00 +1°C° 0 mm 4 m/s 756 mmHg 80%

    31 Maio, Domingo

    Tempo Temperatura Precipitação Vento Pressão Humidade
    00:00 +1°C° 0 mm 4 m/s 757 mmHg 81%
    01:00 +1°C° 0 mm 4 m/s 757 mmHg 81%
    02:00 +2°C° 0 mm 3 m/s 757 mmHg 80%
    03:00 +2°C° 0 mm 3 m/s 757 mmHg 79%
    04:00 +3°C° 0 mm 2 m/s 757 mmHg 75%
    05:00 +4°C° 0 mm 2 m/s 757 mmHg 72%
    06:00 +6°C° 0 mm 1 m/s 758 mmHg 68%
    07:00 +5°C° 0 mm 2 m/s 758 mmHg 65%
    08:00 +5°C° 0 mm 3 m/s 758 mmHg 62%
    09:00 +5°C° 0 mm 4 m/s 758 mmHg 59%
    10:00 +6°C° 0 mm 5 m/s 758 mmHg 59%
    11:00 +5°C° 0 mm 7 m/s 758 mmHg 60%
    12:00 +5°C° 0 mm 8 m/s 758 mmHg 60%
    13:00 +5°C° 0 mm 7 m/s 758 mmHg 61%
    14:00 +6°C° 0 mm 5 m/s 758 mmHg 62%
    15:00 +6°C° 0 mm 4 m/s 757 mmHg 63%
    16:00 +6°C° 0.3 mm 4 m/s 757 mmHg 68%
    17:00 +5°C° 0.3 mm 4 m/s 756 mmHg 73%
    18:00 +5°C° 0.3 mm 3 m/s 755 mmHg 79%
    19:00 +5°C° 0.7 mm 3 m/s 754 mmHg 80%
    20:00 +6°C° 0.7 mm 2 m/s 753 mmHg 82%
    21:00 +6°C° 0.7 mm 2 m/s 752 mmHg 84%
    22:00 +5°C° 1.7 mm 4 m/s 751 mmHg 86%
    23:00 +5°C° 1.7 mm 5 m/s 751 mmHg 87%

    1 Junho, Segunda-feira

    Tempo Temperatura Precipitação Vento Pressão Humidade
    00:00 +4°C° 1.7 mm 7 m/s 750 mmHg 89%
    01:00 +3°C° 0.4 mm 10 m/s 749 mmHg 88%
    02:00 +4°C° 0.4 mm 13 m/s 749 mmHg 86%
    03:00 +4°C° 0.4 mm 16 m/s 748 mmHg 84%
    04:00 +3°C° 0.2 mm 18 m/s 749 mmHg 84%
    05:00 +2°C° 0.2 mm 20 m/s 749 mmHg 83%
    06:00 +2°C° 0.2 mm 22 m/s 750 mmHg 82%
    07:00 0°C° 1.4 mm 21 m/s 751 mmHg 86%
    08:00 -1°C° 1.4 mm 20 m/s 752 mmHg 90%
    09:00 -1°C° 1.4 mm 19 m/s 753 mmHg 95%
    10:00 0°C° 0.6 mm 17 m/s 754 mmHg 95%
    11:00 -1°C° 0.6 mm 15 m/s 756 mmHg 95%
    12:00 -1°C° 0.6 mm 14 m/s 757 mmHg 95%
    13:00 -1°C° 1.2 mm 12 m/s 759 mmHg 96%
    14:00 0°C° 1.2 mm 10 m/s 761 mmHg 96%
    15:00 -1°C° 1.2 mm 8 m/s 762 mmHg 97%
    16:00 -1°C° 1.1 mm 7 m/s 763 mmHg 97%
    17:00 -1°C° 1.1 mm 6 m/s 765 mmHg 97%
    18:00 0°C° 1.1 mm 4 m/s 766 mmHg 97%
    19:00 -1°C° 0.6 mm 4 m/s 767 mmHg 97%
    20:00 0°C° 0.6 mm 3 m/s 767 mmHg 97%
    21:00 0°C° 0.6 mm 3 m/s 768 mmHg 97%
    22:00 0°C° 0.1 mm 3 m/s 768 mmHg 97%
    23:00 0°C° 0.1 mm 3 m/s 769 mmHg 97%
    Mostrar mais